COSMOS 2456 (730)

Last updated on Aug. 13, 2020, 5:30 a.m. UTC

1 36111U 09070A   20225.41158971 -.00000008  00000-0  00000-0 0  9994
2 36111  64.2337 144.1750 0005042 311.3450 227.6158  2.13103031 82970
UTC
Height (km)
Latitude
Longitude
Inclination
Orbital Period
UTC large
Height (km)
Speed (km/s)
/
Latitude / Longitude
Inclination (degrees)
Orbital Period (minutes)
Azimuth
Elevation
Range (km)
Doppler Factor
iOS Compass Heading
iOS Angle

Next 30 passes for location: Hong Kong

Rise time Rise Azimuth (degrees) Set time Set Azimuth (degrees) Duration Max altitude (degrees)

No matching passes for this satellites